Вернуться в каталог

STARLINK-35637

АктивенСвязьVLEO
NORAD 66130·PAYLOAD·🇺🇸 United States

Запущен Oct 22, 2025 с Vandenberg Space Force Base

Loading…

Ближайшие Пролёты (ближайшие 24 часа)

TLE

СвежийSource: CelesTrak SupGP

Эпоха: Sep 14, 2026, 15:06 UTC

1 66130C 25237S   26257.62965278 -.00026512  00000+0 -78362-3 0  2575
2 66130  53.1584 240.8116 0001321  86.7205 325.5277 15.34391750    11

Отслеживайте STARLINK-35637 в реальном времени с AllMySat

Download on the App Store